W3EJE-13 Weather Reports


Display with metric or nautical units.
time (UTC)temp
F
wind
direction
speed
MPH
gust
MPH
rain 1hr
in
rain 24hr
in
rain mn
in
humidity
%
barometer
mb
20260504050652 36 260 0.0 0.0 0.00 0.00 0.00 93 1016.3
20260504050149 36 260 0.0 0.0 0.00 0.00 0.00 93 1016.2
20260504045646 36 260 0.0 0.0 0.00 0.00 0.00 93 1016.5
20260504045146 36 260 0.0 0.0 0.00 0.00 0.00 93 1016.3
20260504044644 36 260 0.0 0.0 0.00 0.00 0.00 93 1016.5
20260504044141 36 260 0.0 0.0 0.00 0.00 0.00 93 1016.2
20260504043638 36 260 0.0 0.0 0.00 0.00 0.00 93 1016.3
20260504043135 36 260 0.0 0.0 0.00 0.00 0.00 93 1016.2
20260504042632 36 260 0.0 0.0 0.00 0.00 0.00 92 1016.0
20260504042129 36 260 0.0 0.0 0.00 0.00 0.00 92 1016.4
20260504041625 36 260 0.0 0.0 0.00 0.00 0.00 91 1016.3
20260504041121 36 260 0.0 0.0 0.00 0.00 0.00 91 1016.2
20260504040618 36 259 0.0 0.0 0.00 0.00 0.00 90 1016.2
20260504040115 36 259 0.0 0.0 0.00 0.00 0.00 90 1016.5
20260504035612 37 259 0.0 0.0 0.00 0.00 0.00 90 1016.3
20260504035108 37 259 0.0 0.0 0.00 0.00 0.00 90 1016.2
20260504034606 37 259 0.0 0.0 0.00 0.00 0.00 90 1016.5
20260504034103 37 260 0.0 0.0 0.00 0.00 0.00 89 1016.4
20260504033601 37 260 0.0 0.0 0.00 0.00 0.00 89 1016.5
20260504033058 37 260 0.0 0.0 0.00 0.00 0.00 89 1016.5
20260504032555 38 260 0.0 0.0 0.00 0.00 0.00 88 1016.4
20260504032052 38 260 0.0 0.0 0.00 0.00 0.00 88 1016.5
20260504031549 38 260 0.0 0.0 0.00 0.00 0.00 87 1016.4
20260504031045 38 260 0.0 0.0 0.00 0.00 0.00 87 1016.3
20260504030542 38 260 0.0 0.0 0.00 0.00 0.00 86 1016.3
20260504030038 38 260 0.0 0.0 0.00 0.00 0.00 86 1016.2
20260504025536 39 260 0.0 0.0 0.00 0.00 0.00 85 1016.5
20260504025032 39 260 0.0 0.0 0.00 0.00 0.00 85 1016.3
20260504024529 39 260 0.0 0.0 0.00 0.00 0.00 84 1016.5
20260504024026 40 259 0.0 0.0 0.00 0.00 0.00 82 1016.3
20260504023523 40 259 0.0 0.0 0.00 0.00 0.00 82 1016.5
20260504023018 41 260 0.0 0.0 0.00 0.00 0.00 81 1016.6
20260504022514 41 260 0.0 0.0 0.00 0.00 0.00 81 1016.7
20260504022011 41 260 0.0 0.0 0.00 0.00 0.00 81 1016.5
20260504021509 41 260 0.0 0.0 0.00 0.00 0.00 80 1016.5
20260504021006 41 260 0.0 0.0 0.00 0.00 0.00 80 1016.4
20260504020502 41 260 0.0 0.0 0.00 0.00 0.00 78 1016.3
20260504015959 42 260 0.0 0.0 0.00 0.00 0.00 78 1016.2
20260504015455 42 260 0.0 0.0 0.00 0.00 0.00 77 1016.1
20260504014951 43 260 0.0 0.0 0.00 0.00 0.00 76 1016.2
20260504014447 43 260 0.0 0.0 0.00 0.00 0.00 75 1016.0
20260504013944 43 260 0.0 0.0 0.00 0.00 0.00 74 1016.1
20260504013443 43 260 0.0 0.0 0.00 0.00 0.00 75 1016.4
20260504012938 43 260 0.0 0.0 0.00 0.00 0.00 73 1016.2
20260504012437 44 260 0.0 0.0 0.00 0.00 0.00 74 1015.9
20260504011934 44 260 0.0 0.0 0.00 0.00 0.00 74 1015.9
20260504011431 44 260 0.0 0.0 0.00 0.00 0.00 73 1016.2
20260504010926 45 259 0.0 0.0 0.00 0.00 0.00 69 1016.0
20260504010423 45 259 0.0 0.0 0.00 0.00 0.00 67 1016.1
20260504005919 46 260 0.0 0.0 0.00 0.00 0.00 67 1016.0
20260504005415 46 259 0.0 0.0 0.00 0.00 0.00 64 1016.0
20260504004913 47 259 0.0 0.0 0.00 0.00 0.00 62 1016.0
20260504004411 48 261 0.0 0.0 0.00 0.00 0.00 62 1015.7
20260504003908 48 265 0.0 0.0 0.00 0.00 0.00 59 1016.1
20260504003404 50 264 0.0 0.0 0.00 0.00 0.00 57 1015.6
20260504002900 50 243 0.0 0.0 0.00 0.00 0.00 54 1015.5
20260504002358 50 260 0.0 0.0 0.00 0.00 0.00 54 1015.9
20260504001855 50 260 0.0 0.0 0.00 0.00 0.00 53 1015.6
20260504001353 50 269 0.0 0.0 0.00 0.00 0.00 54 1015.7
20260504000849 50 269 0.0 0.0 0.00 0.00 0.00 52 1015.6
20260504000346 50 273 0.0 0.0 0.00 0.00 0.00 54 1015.6
20260503235844 51 255 0.0 0.0 0.00 0.00 0.00 53 1016.0
20260503235341 51 271 0.0 0.0 0.00 0.00 0.00 54 1015.7
20260503234838 51 332 4.0 5.0 0.00 0.00 0.00 51 1015.7
20260503234336 52 238 3.0 3.0 0.00 0.00 0.00 51 1015.9
20260503233834 51 283 4.0 6.0 0.00 0.00 0.00 52 1015.9
20260503233330 52 319 3.0 3.0 0.00 0.00 0.00 54 1015.7
20260503232826 52 279 4.0 5.0 0.00 0.00 0.00 53 1015.9
20260503232324 52 252 5.0 7.0 0.00 0.00 0.00 52 1015.4
20260503231821 53 293 5.0 6.0 0.00 0.00 0.00 51 1015.9
20260503231318 53 279 5.0 7.0 0.00 0.00 0.00 50 1015.5
20260503230814 53 333 5.0 8.0 0.00 0.00 0.00 49 1015.6
20260503230311 54 288 5.0 6.0 0.00 0.00 0.00 50 1015.6
20260503225809 54 279 3.0 5.0 0.00 0.00 0.00 48 1015.4
20260503225305 54 26 9.0 10.0 0.00 0.00 0.00 49 1015.5
20260503224801 54 345 7.0 8.0 0.00 0.00 0.00 49 1015.7
20260503224259 54 285 2.0 2.0 0.00 0.00 0.00 51 1015.7
20260503223756 54 11 12.0 15.0 0.00 0.00 0.00 47 1015.9
20260503223254 54 16 11.0 13.0 0.00 0.00 0.00 47 1015.9
20260503222749 55 279 8.0 10.0 0.00 0.00 0.00 49 1015.9
20260503222247 55 284 4.0 6.0 0.00 0.00 0.00 47 1015.7
20260503221746 55 318 7.0 8.0 0.00 0.00 0.00 49 1015.6
20260503221243 55 333 7.0 8.0 0.00 0.00 0.00 50 1015.5
20260503220740 55 271 4.0 6.0 0.00 0.00 0.00 45 1015.5
20260503220237 55 281 9.0 11.0 0.00 0.00 0.00 49 1015.6
20260503215733 56 291 7.0 9.0 0.00 0.00 0.00 47 1015.6
20260503215230 56 277 2.0 2.0 0.00 0.00 0.00 48 1015.7
20260503214728 55 307 6.0 7.0 0.00 0.00 0.00 47 1015.6
20260503214225 55 288 7.0 10.0 0.00 0.00 0.00 50 1015.9
20260503213723 55 274 3.0 5.0 0.00 0.00 0.00 46 1015.7
20260503213220 55 303 4.0 7.0 0.00 0.00 0.00 47 1015.7
20260503212717 55 242 3.0 3.0 0.00 0.00 0.00 47 1015.9
20260503212215 55 266 2.0 5.0 0.00 0.00 0.00 47 1015.9
20260503211712 54 344 7.0 9.0 0.00 0.00 0.00 50 1016.0
20260503211208 55 353 10.0 11.0 0.00 0.00 0.00 45 1016.0
20260503210703 55 312 7.0 9.0 0.00 0.00 0.00 46 1015.7
20260503210201 55 278 4.0 5.0 0.00 0.00 0.00 49 1016.0
20260503205656 55 285 5.0 7.0 0.00 0.00 0.00 47 1015.6
20260503205153 54 336 7.0 8.0 0.00 0.00 0.00 48 1016.1
20260503204649 55 290 12.0 14.0 0.00 0.00 0.00 48 1016.1
20260503204147 54 301 3.0 3.0 0.00 0.00 0.00 50 1015.7
20260503203644 53 340 11.0 14.0 0.00 0.00 0.00 51 1016.0
20260503203142 53 272 8.0 10.0 0.00 0.00 0.00 50 1016.0
20260503202638 54 352 13.0 17.0 0.00 0.00 0.00 48 1016.1
20260503202137 53 278 9.0 13.0 0.00 0.00 0.00 47 1016.1
20260503201634 54 343 7.0 8.0 0.00 0.00 0.00 49 1016.2
20260503201132 54 354 6.0 8.0 0.00 0.00 0.00 48 1016.0
20260503200627 53 19 6.0 7.0 0.00 0.00 0.00 49 1016.4
20260503200124 54 348 8.0 9.0 0.00 0.00 0.00 51 1016.3
20260503195621 52 1 11.0 14.0 0.00 0.00 0.00 47 1016.1
20260503195118 53 321 8.0 9.0 0.00 0.00 0.00 49 1016.3
20260503194615 53 258 5.0 6.0 0.00 0.00 0.00 49 1016.3
20260503194110 53 332 9.0 10.0 0.00 0.00 0.00 49 1016.5
20260503193607 54 325 8.0 13.0 0.00 0.00 0.00 51 1016.7
20260503193102 53 301 7.0 9.0 0.00 0.00 0.00 51 1016.6
20260503192559 52 350 11.0 13.0 0.00 0.00 0.00 47 1016.9
20260503192054 53 258 6.0 8.0 0.00 0.00 0.00 49 1016.8
20260503191551 51 291 7.0 9.0 0.00 0.00 0.00 50 1016.5
20260503191048 51 275 7.0 7.0 0.00 0.00 0.00 48 1016.6
20260503190545 53 309 9.0 13.0 0.00 0.00 0.00 50 1016.8
20260503190043 53 337 7.0 9.0 0.00 0.00 0.00 51 1016.6
20260503185539 53 316 10.0 13.0 0.00 0.00 0.00 51 1016.7
20260503185038 51 315 9.0 10.0 0.00 0.00 0.00 53 1016.9
20260503184535 51 270 7.0 8.0 0.00 0.00 0.00 53 1017.0
20260503184032 53 53 7.0 9.0 0.00 0.00 0.00 52 1017.0
20260503183528 52 303 8.0 10.0 0.00 0.00 0.00 54 1017.1
20260503183025 51 347 12.0 15.0 0.00 0.00 0.00 52 1017.1
20260503182524 52 25 10.0 13.0 0.00 0.00 0.00 52 1017.2
20260503182021 52 308 9.0 11.0 0.00 0.00 0.00 54 1017.1
20260503181518 51 288 8.0 10.0 0.00 0.00 0.00 53 1017.1
20260503181014 50 308 5.0 7.0 0.00 0.00 0.00 53 1017.2
20260503180512 51 330 9.0 11.0 0.00 0.00 0.00 53 1017.2
20260503180009 50 351 7.0 9.0 0.00 0.00 0.00 52 1017.4
20260503175507 51 308 14.0 15.0 0.00 0.00 0.00 53 1017.4
20260503175003 51 296 5.0 7.0 0.00 0.00 0.00 54 1017.1
20260503174501 50 300 11.0 13.0 0.00 0.00 0.00 51 1017.1
20260503173956 49 266 4.0 5.0 0.00 0.00 0.00 50 1017.4
20260503173452 50 303 8.0 9.0 0.00 0.00 0.00 55 1017.7
20260503172949 50 2 10.0 10.0 0.00 0.00 0.00 52 1017.6
20260503172446 50 284 5.0 7.0 0.00 0.00 0.00 52 1017.7
20260503171943 50 318 9.0 11.0 0.00 0.00 0.00 56 1017.7
20260503171439 49 294 8.0 11.0 0.00 0.00 0.00 58 1017.7
20260503170937 49 348 7.0 10.0 0.00 0.00 0.00 56 1017.6
20260503170433 49 287 5.0 6.0 0.00 0.00 0.00 56 1017.6
20260503150825 45 290 5.0 8.0 0.00 0.00 0.00 58 1018.3
20260503150321 45 239 11.0 14.0 0.00 0.00 0.00 60 1018.5
20260503140246 41 333 9.0 10.0 0.00 0.00 0.00 68 1018.2
20260503131215 39 359 10.0 11.0 0.00 0.00 0.00 77 1018.5
20260503130713 39 336 12.0 16.0 0.00 0.00 0.00 77 1018.7
20260503130210 39 9 13.0 16.0 0.00 0.00 0.00 78 1018.3
20260503120136 36 352 7.0 9.0 0.00 0.00 0.00 86 1018.1
20260503110603 33 295 3.0 3.0 0.00 0.00 0.00 93 1017.6
20260503090450 33 259 1.0 1.0 0.00 0.00 0.00 94 1016.6
20260503081416 33 256 0.0 0.0 0.00 0.00 0.00 92 1016.4
20260503080914 33 269 1.0 1.0 0.00 0.00 0.00 91 1016.3
20260503080410 34 265 1.0 1.0 0.00 0.00 0.00 91 1016.3
20260503072846 34 303 3.0 5.0 0.00 0.00 0.00 89 1015.9
20260503072343 34 265 1.0 1.0 0.00 0.00 0.00 88 1016.0
20260503071840 34 262 1.0 1.0 0.00 0.00 0.00 88 1016.1
20260503071337 34 257 0.0 0.0 0.00 0.00 0.00 88 1016.0
20260503070833 35 296 2.0 3.0 0.00 0.00 0.00 87 1016.1
20260503070332 35 267 2.0 2.0 0.00 0.00 0.00 88 1016.1
20260503060250 36 38 3.0 3.0 0.00 0.00 0.00 85 1015.9
20260503054737 36 323 8.0 10.0 0.00 0.00 0.00 84 1016.1
20260503054234 36 347 5.0 6.0 0.00 0.00 0.00 85 1016.2
20260503053732 36 275 4.0 6.0 0.00 0.00 0.00 84 1016.3
20260503053231 36 349 6.0 7.0 0.00 0.00 0.00 84 1016.0